Tracking 18840 objects as of 19-November-2017
HD Live streaming from Space Station
objects crossing your sky now

IRIDIUM 53

Track IRIDIUM 53 now!
10-day predictions
IRIDIUM 53 is classified as:


NORAD ID: 25173
Int'l Code: 1998-010E
Perigee: 783.2 km
Apogee: 786.4 km
Inclination: 86.4 °
Period: 100.4 minutes
Semi major axis: 7155 km
RCS: 4.29 m2 (large)
Launch date: February 18, 1998
Source: United States (US)
Launch site: AIR FORCE WESTERN TEST RANGE (AFWTR)
aabbcc
Your satellite tracking list
Your tracking list is empty




NASA's NSSDC Master Catalog

Two Line Element Set (TLE):
1 25173U 98010E   17323.44323340  .00000093  00000-0  26077-4 0  9993
2 25173  86.3940 285.4495 0002216  84.7127 275.4322 14.34216563 34026
Source of the keplerian elements: AFSPC